This is the latest recevied weather packets stored in our database for station/object W4MLN-3. If no packets are shown the sender has not sent any weather packets the latest 10 day(s).
| Time | Temp. | Humidity | Pressure | Rain* | Wind** | Luminosity | Snow |
|---|---|---|---|---|---|---|---|
| 1778176503 | 16.11° C | 75% | 1010.2 hPa | 0 mm | - | - | - |
| 1778176203 | 16.11° C | 75% | 1010.2 hPa | 0 mm | - | - | - |
| 1778175903 | 16.67° C | 74% | 1010.1 hPa | 0 mm | - | - | - |
| 1778175625 | 16.67° C | 73% | 1010.1 hPa | 0 mm | - | - | - |
| 1778175303 | 17.22° C | 73% | 1010.1 hPa | 0 mm | - | - | - |
| 1778175003 | 17.22° C | 72% | 1010 hPa | 0 mm | - | - | - |
| 1778174703 | 17.78° C | 70% | 1010 hPa | 0 mm | - | - | - |
| 1778174403 | 18.33° C | 68% | 1009.8 hPa | 0 mm | - | - | - |
| 1778174103 | 18.89° C | 66% | 1009.9 hPa | 0 mm | - | - | - |
| 1778173803 | 19.44° C | 65% | 1009.8 hPa | 0 mm | - | - | - |
| 1778173503 | 20.56° C | 64% | 1009.8 hPa | 0 mm | - | - | - |
| 1778173203 | 20° C | 69% | 1009.7 hPa | 0 mm | - | - | - |
| 1778172904 | 20° C | 67% | 1009.8 hPa | 0 mm | - | - | - |
| 1778172603 | 20° C | 67% | 1009.8 hPa | 0 mm | - | - | - |
| 1778172303 | 20° C | 67% | 1009.8 hPa | 0 mm | - | - | - |
| 1778172025 | 19.44° C | 67% | 1010 hPa | 0 mm | - | - | - |
| 1778171703 | 19.44° C | 67% | 1010 hPa | 0 mm | - | - | - |
| 1778171403 | 19.44° C | 68% | 1010 hPa | 0 mm | - | - | - |
| 1778171103 | 18.89° C | 67% | 1010 hPa | 0 mm | - | - | - |
| 1778170803 | 18.89° C | 72% | 1010 hPa | 0 mm | - | - | - |
| 1778170503 | 18.89° C | 70% | 1010 hPa | 0 mm | - | - | - |
| 1778170203 | 18.89° C | 69% | 1010 hPa | 0 mm | - | - | - |
| 1778169904 | 18.89° C | 67% | 1010 hPa | 0 mm | - | - | - |
| 1778169603 | 18.89° C | 67% | 1009.9 hPa | 0 mm | - | - | - |
| 1778169304 | 19.44° C | 69% | 1010 hPa | 0 mm | - | - | - |
* Rain latest hour (hover to see other rain measurements)
** Current wind speed in m/s (hover to see current wind gust speed)